Regional Weather Roundup
Issued by NWS Newport/Morehead, NC

Current Version | Previous Version | Graphics & Text | Print | Product List | Glossary Off
Versions: 1 2 3 4 5 6 7 8 9 10 11 12 13 14 15 16 17 18 19 20 21 22 23 24 25 26 27 28 29 30 31 32 33 34 35 36 37 38 39 40 41 42 43 44 45 46 47 48 49 50

000
ASUS42 KMHX 291726
RWRMHX
WEATHER ROUNDUP FOR EASTERN NORTH CAROLINA
NATIONAL WEATHER SERVICE NEWPORT/MOREHEAD CITY NC
100 PM EDT SAT APR 29 2017

NOTE: "FAIR" INDICATES FEW OR NO CLOUDS BELOW 12,000 FEET
WITH NO SIGNIFICANT WEATHER AND/OR OBSTRUCTIONS TO VISIBILITY

NCZ015>017-031-032-045>047-102-103-291800-
NORTH COAST

CITY           SKY/WX    TMP DP  RH WIND       PRES   REMARKS
EDENTON        SUNNY     86  71  60 SW10      30.17F
ELIZABETH CITY LGT RAIN  85  74  69 SW13G22   30.16F
KITTY HAWK     MOSUNNY   85  68  56 SW5       30.16S
MANTEO         MOSUNNY   83  69  61 W9        30.17F

$$

NCZ045>047-081-094-103-104-291800-
CENTRAL COAST

CITY           SKY/WX    TMP DP  RH WIND       PRES   REMARKS
FRISCO         SUNNY     80  72  76 SW13G21   30.21F HAZE

$$

NCZ095-097-098-100-101-291800-
SOUTHERN COAST

CITY           SKY/WX    TMP DP  RH WIND       PRES   REMARKS
BEAUFORT       SUNNY     80  75  84 SW14G24   30.22F
CEDAR ISLAND   NOT AVBL
JACKSONVILLE   PTSUNNY   85  71  63 S9        30.19F
PINEY ISLAND   MOSUNNY  N/A N/A N/A S18G24    30.20F
WILMINGTON     MOSUNNY   84  70  62 SW14      30.21F


$$

NCZ011>013-027>030-043-044-078>080-089-090>093-098-291800-
COASTAL PLAIN

CITY           SKY/WX    TMP DP  RH WIND       PRES   REMARKS
AHOSKIE          N/A     83  72  68 S6        30.16F
CLINTON        MOSUNNY   85  70  60 SW8       30.19F
ELIZABETHTOWN  MOSUNNY   86  68  54 SW7       30.20F
GOLDSBORO      MOSUNNY   85  73  67 S9        30.18F
GREENVILLE     MOSUNNY   86  70  58 SW13      30.19F
HAVELOCK       NOT AVBL
KENANSVILLE    MOSUNNY   86  70  58 SW5       30.19F
KINSTON        PTSUNNY   86  70  58 SW9       30.20F
NEW BERN       MOSUNNY   86  72  62 SW14      30.20F
RICHLANDS      PTSUNNY   86  71  60 S13G18    30.20F
ROCKY MOUNT    MOSUNNY   84  71  65 S13G18    30.18F
WASHINGTON     SUNNY     85  71  61 W9        30.18F
WHITEVILLE     MOSUNNY   86  67  53 S8        30.20S

$$

AMZ130-135-150-152-154-156-158-170-250-252-270-ANZ085-086-088-633-658-670-291800-
MARINE OBSERVATIONS

STATION/POSITION TIME  TEMP    WIND        PRES    WAVE   SWELL
                       AIR SEA DIR/SP/G            HT/PER HT/PER
                 (UTC) (F)     (DEG/KT/KT) (MB)    (FT/S) (FT/S)
CHESAPEAKE LIGHT NOT AVBL
64 E VA BEACH    1650   62 58  210/ 12/ 14 1021.7    3/ 8   3/ 8
DUCK             1700   81 56  250/ 11/ 14 1021.2
2 E DUCK         1700      59                N/A     2/ 8
OREGON INLET     1700   76 76  190/ 18/ 21 1021.6
13E OREGON INLT  1648      63                N/A     3/ 7   2/10
HATTERAS CG      1700   77 73  200/ 10/ 15 1022.8
DIAMOND BUOY     1650   77 76  230/ 14/ 17 1023.3    3/ 7   2/ 7
CAPE LOOKOUT     1700   77     210/ 14/ 17 1023.1
BEAUFORT LAB     1700   76 71  200/ 14/ 16 1022.6
30 SE NEW RVR IN 1708   74     210/ 10/ 12 1024.0
30 SE NEW RVR IN 1643      73                N/A     4/ 6
27 SE WRIGHTSVLE 1708   75 73  200/ 10/ 14 1022.8
5 SE WRIGHTSVLE  1708   74 72  180/  8/ 12 1023.5
225 S CAPE HAT   1650   75 76  150/  8/ 10 1026.0    3/ 7   3/ 7
41 SE CHARLESTON 1710   76 75  170/ 10/ 12 1023.5

$$




USA.gov is the U.S. government's official web portal to all federal, state and local government web resources and services.